[ hide orbit diagram ]
For accurate long-term ephemerides, please instead use our Horizons system.This orbit viewer was implemented using two-body methods, and hence should not be used for determining accurate long-term trajectories (over several years or decades) or planetary encounter circumstances.
Orbital Elements at Epoch 2459000.5 (2020-May-31.0) TDB
Reference: JPL 22 (heliocentric ecliptic J2000)
Element | Value | Uncertainty (1-sigma) | Units |
e | .03290014969309546 | 3.6516e-08 | |
a | 2.935889282986188 | 1.7425e-08 | au |
q | 2.839298086093588 | 1.0785e-07 | au |
i | 2.1280430736193 | 4.1137e-06 | deg |
node | 17.41129584655499 | 0.00010858 | deg |
peri | 67.41720429300402 | 0.00012891 | deg |
M | 208.2445831589005 | 7.1724e-05 | deg |
tp | 2459775.050321433159 (2022-Jul-14.55032143) | 0.00036916 | TDB |
period | 1837.417876212641 5.03 | 1.6358e-05 4.479e-08 | d yr |
n | .1959271239605257 | 1.7443e-09 | deg/d |
Q | 3.032480479878788 | 1.7998e-08 | au |
|
| | Orbit Determination Parameters
Additional Information
|
[ show covariance matrix ]
Physical Parameter Table
Parameter |
Symbol |
Value |
Units |
Sigma |
Reference |
Notes |
absolute magnitude |
H |
14.7 |
|
n/a |
MPO474250 |
|
|
39310 (2001 TC64) Discovered 2001-Oct-13 by LINEAR at Socorro |
Reference: 20020328/Numbers.arc | Last Updated: 2004-04-19 |
|
|